Left ArrowRight Arrow

31.31129, -92.44514

Hourly Observations for June 19, 2024

Temp ( °F °C ) Dew Point ( °F °C ) Humidity (%) Winds ( mph kmh ) Pressure ( in mb ) Visibility ( mi km ) Precip ( " mm )
12:53 am 00:53 Clear 76 24.4 74 23.3 94 94 E 7 11 29.94 1014 8 13 0.00 0.00
1:53 am 01:53 Clear 75 23.9 74 23.3 96 96 E 6 9 29.93 1014 8 13 0.00 0.00
2:53 am 02:53 Clear 75 23.9 73 22.8 94 94 E 5 7 29.94 1014 8 13 0.00 0.00
3:53 am 03:53 Mostly Clear 75 23.9 73 22.8 94 94 E 6 9 29.93 1014 9 14 0.00 0.00
4:53 am 04:53 Mostly Clear with Light Rain 75 23.9 73 22.8 94 94 ENE 6 9 29.95 1014 8 13 0.01 0.13
5:53 am 05:53 Clear with Light Rain 75 23.9 73 22.8 94 94 NE 7 11 29.96 1015 9 14 0.01 0.25
6:53 am 06:53 Partly Cloudy with Light Rain 75 23.9 72 22.2 90 90 NE 9 15 29.98 1015 8 13 0.01 0.13
7:53 am 07:53 Sunny 75 23.9 72 22.2 90 90 NE 8 13 29.99 1016 10 16 0.01 0.13
8:53 am 08:53 Sunny 78 25.6 72 22.2 82 82 ENE 8 13 30.01 1016 10 16 0.00 0.00
9:53 am 09:53 Sunny 80 26.7 73 22.8 79 79 ENE 6 9 30.03 1017 10 16 0.00 0.00
10:53 am 10:53 Sunny 84 28.9 75 23.9 74 74 E 9 15 30.04 1017 10 16 0.00 0.00
11:53 am 11:53 Mostly Sunny 87 30.6 75 23.9 68 68 ESE 13 20 30.04 1017 10 16 0.00 0.00
12:53 pm 12:53 Partly Cloudy 87 30.6 74 23.3 65 65 ENE 14 22 30.03 1017 10 16 0.00 0.00
1:53 pm 13:53 Sunny 88 31.1 74 23.3 63 63 ENE 12 19 30.03 1017 10 16 0.00 0.00
2:53 pm 14:53 Mostly Cloudy 89 31.7 74 23.3 61 61 ENE 9 15 30.01 1016 10 16 0.00 0.00
3:53 pm 15:53 Sunny 89 31.7 75 23.9 63 63 NE 9 15 29.99 1016 10 16 0.00 0.00
4:53 pm 16:53 Sunny 89 31.7 74 23.3 61 61 E 9 15 29.99 1016 10 16 0.00 0.00
5:53 pm 17:53 Mostly Sunny 85 29.4 76 24.4 75 75 E 8 13 29.99 1016 10 16 0.02 0.51
6:53 pm 18:53 Sunny 84 28.9 76 24.4 77 77 E 6 9 30.01 1016 10 16 0.00 0.00
7:53 pm 19:53 Mostly Sunny 84 28.9 75 23.9 74 74 E 6 9 30.03 1017 10 16 0.00 0.00
8:15 pm 20:15 Mostly Cloudy with Light Rain 79 26.1 75 23.9 88 88 E 13 20 30.03 1017 6 10 0.06 1.52
8:53 pm 20:53 Mostly Clear 78 25.6 75 23.9 90 90 E 7 11 30.05 1018 10 16 0.06 1.52
9:53 pm 21:53 Mostly Cloudy 78 25.6 74 23.3 87 87 E 9 15 30.07 1018 10 16 0.00 0.00
10:53 pm 22:53 Clear 77 25 74 23.3 90 90 E 6 9 30.08 1019 10 16 0.00 0.00
11:53 pm 23:53 Clear 77 25 74 23.3 90 90 E 7 11 30.08 1019 10 16 0.00 0.00

Powered by Vaisala Xweather